This demonstration page uses our WeatherBlox Daily Observations layout. Learn more.

Left ArrowRight Arrow

40.92945, -100.16068

Hourly Observations for December 25, 2020

Temp ( °F °C ) Dew Point ( °F °C ) Humidity (%) Winds ( mph kmh ) Pressure ( in mb ) Visibility ( mi km ) Precip ( " mm )
12:15 am 00:15 Clear 22 -5.4 21 -6.2 94 94 Calm 30.27 1025 10 16.0934 0 0
12:35 am 00:35 Clear 22 -5.5 21 -6.2 95 95 ENE 5 7 30.26 1025 10 16.0934 0 0
12:55 am 00:55 Clear 21 -6 20 -6.6 96 96 Calm 30.26 1025 10 16.0934 0 0
1:15 am 01:15 Clear 21 -6.1 19 -7 93 93 Calm 30.26 1025 10 16.0934 0 0
1:35 am 01:35 Clear 20 -6.7 19 -7.5 94 94 Calm 30.25 1024 10 16.0934 0 0
1:55 am 01:55 Partly Cloudy 19 -7 18 -8 93 93 Calm 30.24 1024 10 16.0934 0 0
2:15 am 02:15 Mostly Cloudy 20 -6.5 18 -7.6 92 92 Calm 30.22 1023 10 16.0934 0 0
2:35 am 02:35 Cloudy with Mist and Fog 19 -7.1 18 -8 93 93 Calm 30.23 1024 0.75 1.207005 0 0
2:55 am 02:55 Mostly Cloudy 19 -7.1 17 -8.1 93 93 Calm 30.23 1024 7 11.26538 0 0
3:15 am 03:15 Partly Cloudy with Mist and Fog 19 -7 17 -8.1 92 92 W 5 7 30.23 1024 4 6.43736 0 0
3:35 am 03:35 Clear 20 -6.6 18 -7.6 93 93 Calm 30.21 1023 10 16.0934 0 0
3:55 am 03:55 Clear 19 -7 17 -8.1 92 92 NW 3 6 30.21 1023 10 16.0934 0 0
4:15 am 04:15 Clear 19 -7.3 17 -8.5 91 91 W 3 6 30.21 1023 10 16.0934 0 0
4:35 am 04:35 Clear 19 -7.2 17 -8.5 91 91 W 3 6 30.2 1023 10 16.0934 0 0
4:55 am 04:55 Clear 20 -6.9 18 -8 92 92 WNW 6 9 30.2 1023 10 16.0934 0 0
5:15 am 05:15 Clear 20 -6.8 18 -7.9 92 92 WNW 6 9 30.2 1023 10 16.0934 0 0
5:35 am 05:35 Clear 22 -5.7 20 -6.7 93 93 W 8 13 30.2 1023 10 16.0934 0 0
5:55 am 05:55 Clear 23 -5.2 20 -6.5 91 91 W 7 11 30.19 1022 10 16.0934 0 0
6:15 am 06:15 Clear 22 -5.6 19 -7.4 87 87 W 5 7 30.19 1022 10 16.0934 0 0
6:35 am 06:35 Clear 23 -5.1 19 -7.3 85 85 Calm 30.19 1022 10 16.0934 0 0
6:55 am 06:55 Clear 23 -5 19 -7.5 83 83 WNW 5 7 30.19 1022 10 16.0934 0 0
7:15 am 07:15 Clear 22 -5.5 18 -7.7 85 85 WNW 7 11 30.19 1022 10 16.0934 0 0
7:35 am 07:35 Clear 22 -5.5 18 -7.7 85 85 W 8 13 30.19 1022 10 16.0934 0 0
7:55 am 07:55 Clear 25 -4.1 19 -7.1 80 80 WNW 10 17 30.18 1022 10 16.0934 0 0
8:15 am 08:15 Sunny 25 -3.8 19 -7.2 78 78 WNW 12 19 30.18 1022 10 16.0934 0 0
8:35 am 08:35 Sunny 26 -3.2 19 -7 75 75 WNW 12 19 30.17 1022 10 16.0934 0 0
8:55 am 08:55 Sunny 28 -2.5 21 -6.2 76 76 WNW 10 17 30.16 1021 10 16.0934 0 0
9:15 am 09:15 Sunny 29 -1.8 22 -5.8 74 74 W 13 20 30.16 1021 10 16.0934 0 0
9:35 am 09:35 Sunny 30 -1 22 -5.4 72 72 WNW 13 20 30.15 1021 10 16.0934 0 0
9:55 am 09:55 Sunny 32 0 22 -5.3 68 68 WNW 14 22 30.14 1021 10 16.0934 0 0
10:15 am 10:15 Sunny 33 0.5 23 -4.8 68 68 WNW 14 22 30.14 1021 10 16.0934 0 0
10:35 am 10:35 Sunny 34 1.2 24 -4.7 65 65 WNW 15 24 30.14 1020 10 16.0934 0 0
10:55 am 10:55 Sunny 36 2 24 -4.5 62 62 WNW 16 26 30.13 1020 10 16.0934 0 0
11:15 am 11:15 Sunny 37 2.9 25 -3.9 61 61 WNW 16 26 30.12 1020 10 16.0934 0 0
11:35 am 11:35 Sunny 39 3.8 25 -3.8 58 58 WNW 14 22 30.11 1020 10 16.0934 0 0
11:55 am 11:55 Sunny 40 4.5 25 -3.8 55 55 WNW 17 28 30.1 1019 10 16.0934 0 0
12:15 pm 12:15 Sunny 41 4.8 26 -3.2 57 57 WNW 16 26 30.1 1019 10 16.0934 0 0
12:35 pm 12:35 Sunny 41 5.1 27 -2.9 57 57 WNW 17 28 30.09 1019 10 16.0934 0 0
12:55 pm 12:55 Sunny 42 5.6 28 -2.1 58 58 WNW 14 22 30.07 1018 10 16.0934 0 0
1:15 pm 13:15 Sunny 43 6.1 28 -2 56 56 WNW 14 22 30.06 1018 10 16.0934 0 0
1:35 pm 13:35 Sunny 44 6.8 30 -1.3 57 57 WNW 14 22 30.04 1017 10 16.0934 0 0
1:55 pm 13:55 Sunny 45 7.2 30 -1.2 56 56 WNW 12 19 30.04 1017 10 16.0934 0 0
2:15 pm 14:15 Sunny 46 7.7 30 -0.9 55 55 WNW 10 17 30.03 1017 10 16.0934 0 0
2:35 pm 14:35 Sunny 47 8.1 31 -0.5 55 55 WNW 10 17 30.02 1017 10 16.0934 0 0
2:55 pm 14:55 Sunny 47 8.5 32 0 55 55 WNW 8 13 30.02 1016 10 16.0934 0 0
3:15 pm 15:15 Sunny 48 8.8 32 0 54 54 WNW 8 13 30.01 1016 10 16.0934 0 0
3:35 pm 15:35 Sunny 48 9 32 0 54 54 WNW 8 13 30 1016 10 16.0934 0 0
3:55 pm 15:55 Sunny 48 8.9 32 0.2 55 55 WNW 7 11 30 1016 10 16.0934 0 0
4:15 pm 16:15 Sunny 47 8.5 33 0.4 57 57 W 5 7 30.01 1016 10 16.0934 0 0
4:35 pm 16:35 Sunny 47 8.1 32 0.1 57 57 Calm 30.01 1016 10 16.0934 0 0
4:55 pm 16:55 Sunny 45 7.1 32 -0.2 60 60 Calm 30.02 1017 10 16.0934 0 0
5:15 pm 17:15 Sunny 45 7.2 30 -1 56 56 WSW 5 7 30.01 1016 10 16.0934 0 0
5:35 pm 17:35 Clear 40 4.5 28 -2 63 63 SW 3 6 30.03 1017 10 16.0934 0 0
5:55 pm 17:55 Clear 39 3.9 29 -1.5 68 68 Calm 30.04 1017 10 16.0934 0 0
6:15 pm 18:15 Clear 35 1.7 28 -2.2 76 76 SW 5 7 30.05 1018 10 16.0934 0 0
6:35 pm 18:35 Clear 34 1 28 -2.3 79 79 WSW 3 6 30.07 1018 10 16.0934 0 0
6:55 pm 18:55 Clear 34 1 28 -2.5 78 78 Calm 30.06 1018 10 16.0934 0 0
7:15 pm 19:15 Clear 35 1.5 27 -2.8 73 73 Calm 30.05 1018 10 16.0934 0 0
7:35 pm 19:35 Clear 33 0.5 28 -2.2 82 82 Calm 30.06 1018 10 16.0934 0 0
7:55 pm 19:55 Clear 32 0 28 -2.1 86 86 N 6 9 30.07 1018 10 16.0934 0 0
8:15 pm 20:15 Clear 31 -0.3 28 -2.4 86 86 N 6 9 30.07 1018 10 16.0934 0 0
8:35 pm 20:35 Clear 30 -1 27 -2.6 89 89 NW 3 6 30.08 1019 10 16.0934 0 0
8:55 pm 20:55 Clear 30 -1.1 27 -2.9 88 88 Calm 30.07 1018 10 16.0934 0 0
9:15 pm 21:15 Clear 29 -1.4 27 -3 89 89 WNW 3 6 30.07 1018 10 16.0934 0 0
9:35 pm 21:35 Clear 28 -2 26 -3.6 89 89 W 7 11 30.08 1019 10 16.0934 0 0
9:55 pm 21:55 Clear 28 -2 25 -3.8 88 88 WNW 3 6 30.08 1019 10 16.0934 0 0
10:15 pm 22:15 Clear 29 -1.9 25 -3.7 88 88 WNW 6 9 30.08 1018 10 16.0934 0 0
10:35 pm 22:35 Clear 28 -2 25 -3.7 88 88 NW 6 9 30.08 1019 10 16.0934 0 0
10:55 pm 22:55 Clear 27 -2.9 24 -4.3 90 90 WNW 6 9 30.1 1019 10 16.0934 0 0
11:15 pm 23:15 Clear 28 -2.1 25 -4 87 87 WNW 5 7 30.09 1019 10 16.0934 0 0
11:35 pm 23:35 Clear 28 -2.5 24 -4.2 88 88 NW 6 9 30.09 1019 10 16.0934 0 0
11:55 pm 23:55 Clear 28 -2.5 24 -4.4 87 87 NW 5 7 30.08 1019 10 16.0934 0 0

Powered by AerisWeather